Location: Unspecified
(0.0000°N, 0.0000°E)
Time: 11:04:40
(UTC+00:00)

JUGNU - Visible Passes

Search period start: 15 December 2019 00:00
Search period end: 25 December 2019 00:00
Orbit: 836 x 864 km, 20.0° (Epoch: 15 December)

Date Brightness Start Highest point End Pass type
(mag) Time Alt. Az. Time Alt. Az. Time Alt. Az.
15 Dec ? 04:06:49 64° WNW 04:07:47 87° NNE 04:13:40 10° ESE visible
15 Dec ? 18:39:39 10° WNW 18:44:07 22° NNW 18:48:30 10° NNE visible
16 Dec ? 03:52:38 83° SSW 03:52:38 83° SSW 03:58:31 10° ESE visible
16 Dec ? 18:24:47 10° WNW 18:29:00 20° NNW 18:33:14 10° NNE visible
17 Dec ? 03:38:26 61° SE 03:38:26 61° SE 03:43:20 10° ESE visible
17 Dec ? 05:21:41 10° WSW 05:26:38 28° SSW 05:31:35 10° SE visible
18 Dec ? 03:24:12 42° SE 03:24:12 42° SE 03:28:09 10° ESE visible
18 Dec ? 05:06:46 10° WSW 05:11:30 25° SSW 05:16:17 10° SE visible
19 Dec ? 03:09:58 30° SE 03:09:58 30° SE 03:12:57 10° ESE visible
19 Dec ? 04:51:53 10° WSW 04:56:24 23° SSW 05:00:58 10° SE visible
20 Dec ? 02:55:42 21° SE 02:55:42 21° SE 02:57:43 10° SE visible
20 Dec ? 04:37:33 12° WSW 04:41:18 21° SSW 04:45:38 10° SSE visible
21 Dec ? 02:41:26 15° SE 02:41:26 15° SE 02:42:29 10° SE visible
21 Dec ? 04:23:16 14° SW 04:26:13 19° SSW 04:30:18 10° SSE visible
22 Dec ? 02:27:08 10° SE 02:27:08 10° SE 02:27:15 10° SE visible
22 Dec ? 04:08:58 15° SW 04:11:08 18° SSW 04:14:57 10° SSE visible
23 Dec ? 03:54:40 15° SSW 03:56:04 16° SSW 03:59:36 10° SSE visible
24 Dec ? 03:40:22 15° SSW 03:41:00 15° SSW 03:44:15 10° SSE visible
24 Dec ? 20:05:01 10° NNW 20:05:18 11° NNW 20:05:18 11° NNW visible
